Weather History for Tyler, TX

Change the Weather History Date:

Tuesday, July 23, 2013

  Actual Average Record
Temperature  
Mean Temperature 86 °F 84 °F  
Max Temperature 94 °F 94 °F 105 °F (1963)
Min Temperature 78 °F 74 °F 63 °F (1970)
Degree Days  
Heating Degree Days 0 0  
Month to date heating degree days 0 0  
Since 1 June heating degree days 0 0  
Since 1 July heating degree days 0 0  
Cooling Degree Days 21 19  
Month to date cooling degree days 404 406  
Year to date cooling degree days 1313 1208  
Since 1 June cooling degree days 916 839  
Growing Degree Days 36 (Base 50)    
Moisture  
Dew Point 72 °F    
Average Humidity 67    
Maximum Humidity 85    
Minimum Humidity 49    
Precipitation  
Precipitation 0.00 in 0.05 in 3.03 in (1994)
Month to date precipitation 3.34 2.19  
Year to date precipitation 19.35 25.95  
Snow  
Snow 0.00 in - - ()
Month to date snowfall 0.0  
Since 1 June snowfall 0.0  
Since 1 July snowfall 0.0  
Snow Depth 0.00 in    
Sea Level Pressure  
Sea Level Pressure 29.94 in    
Wind  
Wind Speed 11 mph (SSW)    
Max Wind Speed 17 mph    
Max Gust Speed 22 mph    
Visibility 10 miles    
Events      
T = Trace of Precipitation, MM = Missing Value Source: NWS Daily Summary

Daily Weather History Graph

Daily Weather History Graph

Search for Another Location

Airport:

Trip Planner

Search our weather history database for the weather conditions in past years. The results will help you decide how hot, cold, wet, or windy it might be!

Date:

Astronomy

Jul. 23, 2013 Rise Set
Actual Time 6:30 AM CDT 8:25 PM CDT
Civil Twilight 6:03 AM CDT 8:52 PM CDT
Nautical Twilight 5:30 AM CDT 9:25 PM CDT
Astronomical Twilight 4:54 AM CDT 10:00 PM CDT
Moon 9:03 PM CDT (7/23) 7:33 AM CDT (7/23)
Length of Visible Light 14h 49m
Length of Day
13h 54m
Full, 99% of the Moon is Illuminated
Jul 23
Full
Jul 29
Last Quarter
Aug 6
New
Aug 14
First Quarter
Aug 20
Full

Hourly Weather History & Observations

Time (CDT) Temp. Heat Index Dew Point Humidity Pressure Visibility Wind Dir Wind Speed Gust Speed Precip Events Conditions
12:53 AM 82.0 °F 87.9 °F 73.9 °F 76% 29.96 in 10.0 mi South 9.2 mph - N/A   Clear
1:53 AM 82.0 °F 87.4 °F 73.0 °F 74% 29.96 in 10.0 mi SSW 10.4 mph - N/A   Clear
2:53 AM 81.0 °F 84.9 °F 71.1 °F 72% 29.96 in 10.0 mi South 11.5 mph - N/A   Clear
3:53 AM 80.1 °F 83.6 °F 71.1 °F 74% 29.96 in 10.0 mi SSW 15.0 mph - N/A   Clear
4:53 AM 79.0 °F - 72.0 °F 79% 29.96 in 10.0 mi SSW 10.4 mph - N/A   Clear
5:53 AM 78.1 °F - 73.0 °F 84% 29.96 in 10.0 mi SSW 13.8 mph 21.9 mph N/A   Mostly Cloudy
6:10 AM 78.8 °F - 73.4 °F 83% 29.99 in 10.0 mi SSW 16.1 mph 20.7 mph N/A   Mostly Cloudy
6:53 AM 78.1 °F - 73.0 °F 84% 29.97 in 10.0 mi SSW 9.2 mph - N/A   Overcast
7:53 AM 79.0 °F - 73.0 °F 82% 29.98 in 10.0 mi SSW 11.5 mph - N/A   Overcast
8:53 AM 81.0 °F 85.8 °F 73.0 °F 77% 30.00 in 10.0 mi SW 15.0 mph 21.9 mph N/A   Overcast
9:53 AM 84.0 °F 89.6 °F 72.0 °F 67% 30.01 in 10.0 mi WSW 13.8 mph - N/A   Scattered Clouds
10:53 AM 86.0 °F 92.2 °F 72.0 °F 63% 30.01 in 10.0 mi WSW 11.5 mph - N/A   Scattered Clouds
11:53 AM 88.0 °F 94.7 °F 72.0 °F 59% 30.00 in 10.0 mi SSW 15.0 mph - N/A   Partly Cloudy
12:53 PM 90.0 °F 96.9 °F 72.0 °F 55% 29.98 in 10.0 mi South 13.8 mph 21.9 mph N/A   Partly Cloudy
1:53 PM 91.9 °F 100.7 °F 73.0 °F 54% 29.96 in 10.0 mi South 12.7 mph - N/A   Clear
2:53 PM 91.9 °F 99.5 °F 72.0 °F 52% 29.95 in 10.0 mi SW 11.5 mph - N/A   Clear
3:53 PM 93.0 °F 100.7 °F 72.0 °F 50% 29.91 in 10.0 mi SW 12.7 mph - N/A   Clear
4:53 PM 93.0 °F 100.7 °F 72.0 °F 50% 29.90 in 10.0 mi SW 13.8 mph - N/A   Clear
5:53 PM 91.9 °F 97.4 °F 70.0 °F 48% 29.88 in 10.0 mi SSW 12.7 mph - N/A   Clear
6:53 PM 90.0 °F 95.4 °F 70.0 °F 52% 29.85 in 10.0 mi South 5.8 mph - N/A   Clear
7:53 PM 87.1 °F 92.0 °F 70.0 °F 57% 29.87 in 10.0 mi South 3.5 mph - N/A   Clear
8:53 PM 84.9 °F 88.2 °F 68.0 °F 57% 29.85 in 10.0 mi SSW 8.1 mph - N/A   Clear
9:53 PM 82.9 °F 86.5 °F 69.1 °F 63% 29.89 in 10.0 mi SSE 8.1 mph - N/A   Clear
10:53 PM 81.0 °F 84.1 °F 69.1 °F 67% 29.90 in 10.0 mi SSE 5.8 mph - N/A   Clear
11:53 PM 82.9 °F 85.8 °F 68.0 °F 60% 29.88 in 10.0 mi South 10.4 mph - N/A   Clear